Location: Chircca
(13.7944°S, 72.0608°W)
Time: 06:24:59
(UTC+00:00)

Cosmos 2263 Rocket - Pass Details

Date: 14 July 2020
Orbit: 825 x 847 km, 71.0° (Epoch: 14 August)

Event Time Altitude Azimuth Distance (km) Brightness Sun altitude
Rises 01:16:04 0° 317° (NW) 3,358 6.0 -37.7°
Reaches altitude 10° 01:18:55 10° 304° (NW) 2,434 5.2 -38.4°
Enters shadow 01:22:37 24° 263° (W) 1,671 4.1 -39.2°
